Fort Lewis, WA

7:32 PM PDT on October 16, 2017 (GMT -0700)
Gray Army Air Field

Weather History for KGRF - February, 2014

Change the Weather History Date:

Friday, February 7, 2014

  Actual Average Record
Temperature  
Mean Temperature 24 °F -  
Max Temperature 33 °F 47 °F 59 °F (1998)
Min Temperature 15 °F 31 °F 15 °F (2014)
Degree Days  
Heating Degree Days 41    
Moisture  
Dew Point 18 °F    
Average Humidity 69    
Maximum Humidity 97    
Minimum Humidity 50    
Precipitation  
Precipitation 0.00 in - - ()
Sea Level Pressure  
Sea Level Pressure 29.83 in    
Wind  
Wind Speed 6 mph (NNE)    
Max Wind Speed 14 mph    
Max Gust Speed -    
Visibility 10 miles    
Events Rain    
Averages and records for this station are not official NWS values.
T = Trace of Precipitation, MM = Missing Value Source: NWS Daily Summary

Daily Weather History Graph

Daily Weather History Graph

Search for Another Location

Airport or City:

Trip Planner

Search our weather history database for the weather conditions in past years. The results will help you decide how hot, cold, wet, or windy it might be!

Date:

Astronomy

Feb. 07, 2014 Rise Set
Actual Time 7:27 AM PST 5:22 PM PST
Civil Twilight 6:55 AM PST 5:54 PM PST
Nautical Twilight 6:18 AM PST 6:30 PM PST
Astronomical Twilight 5:43 AM PST 7:06 PM PST
Moon 11:33 AM PST (2/7) 1:51 AM PST (2/7)
Length of Visible Light 10h 59m
Length of Day
9h 55m
First Quarter, 60% of the Moon is Illuminated
Feb 7
First Quarter
Feb 14
Full
Feb 22
Last Quarter
Mar 1
New
Mar 8
First Quarter

Hourly Weather History & Observations

Time (PST) Temp. Windchill Dew Point Humidity Pressure Visibility Wind Dir Wind Speed Gust Speed Precip Events Conditions
12:58 AM 22.3 °F 16.1 °F 19.2 °F 88% 29.83 in 10.0 mi SE 4.6 mph - N/A   Overcast
1:58 AM 21.7 °F 14.3 °F 20.5 °F 95% 29.86 in 10.0 mi SE 5.8 mph - N/A   Overcast
2:58 AM 20.5 °F 12.8 °F 19.6 °F 96% 29.87 in 10.0 mi SE 5.8 mph - N/A   Overcast
3:58 AM 19.6 °F - 18.9 °F 97% 29.90 in 10.0 mi Calm Calm - N/A   Clear
4:58 AM 17.4 °F - 16.7 °F 97% 29.91 in 10.0 mi ESE 1.2 mph - N/A   Clear
5:58 AM 15.3 °F - 14.4 °F 96% 29.92 in 10.0 mi SSE 2.3 mph - N/A   Clear
7:55 AM 17.6 °F - 15.8 °F 93% 29.93 in 10.0 mi Calm Calm - N/A   Mostly Cloudy
8:55 AM 21.2 °F - 19.4 °F 93% 29.92 in 10.0 mi Calm Calm - N/A   Mostly Cloudy
9:55 AM 26.6 °F 22.6 °F 21.2 °F 80% 29.93 in 10.0 mi Variable 3.5 mph - N/A   Scattered Clouds
10:55 AM 28.4 °F 20.4 °F 19.4 °F 69% 29.92 in 10.0 mi NNE 8.1 mph - N/A   Scattered Clouds
11:55 AM 32.0 °F 23.6 °F 19.4 °F 60% 29.89 in 10.0 mi North 10.4 mph - N/A   Scattered Clouds
12:55 PM 32.9 °F 24.1 °F 18.9 °F 56% 29.88 in 10.0 mi North 11.5 mph - 0.00 in   Scattered Clouds
1:55 PM 33.8 °F 26.4 °F 17.6 °F 52% 29.84 in 10.0 mi North 9.2 mph - N/A   Scattered Clouds
2:55 PM 33.6 °F 26.8 °F 18.3 °F 54% 29.83 in 10.0 mi North 8.1 mph - N/A   Mostly Cloudy
2:56 PM 33.6 °F 27.5 °F 18.3 °F 54% 29.83 in 10.0 mi North 6.9 mph - N/A   Mostly Cloudy
3:55 PM 33.8 °F 27.0 °F 18.7 °F 54% 29.81 in 10.0 mi NNW 8.1 mph - N/A   Mostly Cloudy
4:55 PM 33.3 °F 27.1 °F 18.7 °F 55% 29.80 in 10.0 mi North 6.9 mph - N/A   Scattered Clouds
5:58 PM 32.7 °F 27.3 °F 20.7 °F 61% 29.78 in 10.0 mi North 5.8 mph - N/A   Scattered Clouds
6:58 PM 31.5 °F 26.8 °F 20.8 °F 65% 29.74 in 10.0 mi North 4.6 mph - N/A   Overcast
7:58 PM 32.7 °F 23.9 °F 19.0 °F 57% 29.73 in 10.0 mi North 11.5 mph - N/A   Overcast
8:58 PM 32.5 °F 23.2 °F 19.0 °F 58% 29.73 in 10.0 mi North 12.7 mph - 0.00 in   Overcast
9:58 PM 32.9 °F 25.3 °F 19.0 °F 57% 29.78 in 10.0 mi North 9.2 mph - N/A   Overcast
10:39 PM 32.0 °F 23.0 °F 17.6 °F 55% 29.77 in 10.0 mi North 11.5 mph - N/A   Overcast
10:51 PM 32.0 °F 24.2 °F 17.6 °F 55% 29.77 in 10.0 mi North 9.2 mph - N/A Rain Light Rain
10:58 PM 33.3 °F 23.7 °F 17.2 °F 52% 29.79 in 10.0 mi North 13.8 mph - 0.00 in Rain Light Rain
11:04 PM 32.0 °F 22.5 °F 15.8 °F 51% 29.77 in 10.0 mi North 12.7 mph - N/A   Overcast
11:58 PM 33.4 °F 25.4 °F 16.3 °F 50% 29.81 in 10.0 mi North 10.4 mph - 0.00 in   Overcast